Regional Weather Roundup
Issued by NWS

Home | Current Version | Previous Version | Text Only | Print | Product List | Glossary Off
Versions: 1 2 3 4 5 6 7 8 9 10 11 12 13 14 15 16 17 18 19 20 21 22 23 24 25 26 27 28 29 30 31 32 33 34 35 36 37 38 39 40 41 42 43 44 45 46 47 48 49 50

000
ASUS43 KLOT 121408
RWRIL

ILLINOIS REGIONAL WEATHER ROUNDUP
NATIONAL WEATHER SERVICE CHICAGO/ROMEOVILLE IL
800 AM CST FRI FEB 12 2016

NOTE: "FAIR" INDICATES FEW OR NO CLOUDS BELOW 12,000 FEET WITH NO
SIGNIFICANT WEATHER AND/OR OBSTRUCTIONS TO VISIBILITY.

* THESE STATIONS ARE NOT UNDER NWS QUALITY CONTROL. THEY ALSO MAY NOT
  REPORT WEATHER SUCH AS PRECIPITATION OR FOG.

ILZ001-002-007-009-015-016-024-121500-
NORTHWEST ILLINOIS

CITY           SKY/WX    TMP DP  RH WIND       PRES   REMARKS
MOLINE         CLOUDY    22  16  78 NW18      30.23R WCI   7
STERLING*      CLOUDY    19  12  73 W12G17    30.17R WCI   7
SAVANNA*       FLURRIES  19  12  76 NW14      30.22R WCI   5
$$

ILZ003-004-008-010-011-017-018-121500-
NORTH CENTRAL ILLINOIS

CITY           SKY/WX    TMP DP  RH WIND       PRES   REMARKS
ROCKFORD       FLURRIES  17   9  70 NW16      30.19R WCI   2
FREEPORT*      CLOUDY    15  10  78 NW13      30.20R WCI   1
ROCHELLE*      FLURRIES  19  12  76 W15       30.17S WCI   4
DE KALB*       FLURRIES  18  12  77 W16       30.15S WCI   4
$$

ILZ005-006-012>014-019>023-121500-
NORTHEAST ILLINOIS

CITY           SKY/WX    TMP DP  RH WIND       PRES   REMARKS
CHICAGO-OHARE  CLOUDY    19   9  65 W14       30.13S WCI   6
CHICAGO-MIDWAY CLOUDY    21   7  54 W12       30.15S WCI   9
AURORA         CLOUDY    20  12  71 W13       30.16R WCI   7
LANSING*       CLOUDY    21  10  62 W9        30.16R WCI  11
JOLIET*        CLOUDY    22  13  70 W8        30.17S WCI  12
WAUKEGAN       CLOUDY    18   9  68 NW12G18   30.12R WCI   5
DUPAGE AIRPORT CLOUDY    19   9  65 W12       30.13S WCI   7
KANKAKEE*      PTSUNNY   23  17  80 W9        30.18S WCI  13
WHEELING       CLOUDY    19   9  65 W15       30.14S WCI   5
MORRIS*        CLOUDY    21  14  73 W13       30.15S WCI   9
ROMEOVILLE*    CLOUDY    19  12  72 W8        30.16S WCI   9
NORTHERLY ISL    N/A     21   8  57 W8          N/A  WCI  12
$$

LMZ740>746-121500-
SOUTHERN LAKE MICHIGAN

STATION/POSITION SKY/WX   TEMP    WIND        PRES    VSBY  WAVE
                          AIR SEA DIR/SP/G                  HT/PER
                          (F)     (DEG/KT/KT) (MB)    (MI)  (FT/S)
HARRISON CRIB              22     270/ 20/ 23   N/A
BURNHAM HARBOR             21     260/  9/ 14   N/A
CALUMET HARBOR             20     230/  8/ 11 1019.9F
BURNS HARBOR               20     220/  9/ 14 1021.3F
MICHIGAN CITY              22     240/ 22/ 24   N/A
$$

ILZ025>027-034>036-040-047-049-050-058-095>099-121500-
WEST-CENTRAL ILLINOIS

CITY           SKY/WX    TMP DP  RH WIND       PRES   REMARKS
QUINCY         CLOUDY    20  18  92 W8        30.26R WCI  10
GALESBURG*     CLOUDY    21  19  90 W12       30.22R WCI   9
MACOMB*        CLOUDY    22  20  91 W10       30.26S WCI  11
JACKSONVILLE*  CLOUDY    24  20  86 W6        30.25R WCI  17
PITTSFIELD*    CLOUDY    23  20  90 W5        30.27R WCI  17
$$

ILZ028>032-037-038-041>044-048-051>054-059>061-121500-
CENTRAL ILLINOIS

CITY           SKY/WX    TMP DP  RH WIND       PRES   REMARKS
PONTIAC        CLOUDY    23  20  87 W12       30.19S WCI  12
BLOOMINGTON    CLOUDY    22  19  88 W9        30.20S WCI  12
DECATUR        CLOUDY    22  18  85 W8        30.22R WCI  12
PEORIA         PTSUNNY   23  17  78 W6        30.22S WCI  16
LACON*         CLOUDY    22  16  76 W5        30.21R WCI  16
LINCOLN*       CLOUDY    23  20  90 W6        30.23S WCI  15
SPRINGFIELD    CLOUDY    23  19  85 W7        30.25R WCI  15
TAYLORVILLE    CLOUDY    23  21  93 W6        30.25R WCI  16
$$

ILZ033-039-045-046-055>057-062-063-121500-
EAST-CENTRAL ILLINOIS

CITY           SKY/WX    TMP DP  RH WIND       PRES   REMARKS
CHAMPAIGN      CLOUDY    21  18  88 W7        30.20S WCI  12
RANTOUL*       FLURRIES  24  21  89 W8        30.19F WCI  14
MATTOON        CLOUDY    20  16  84 SW3       30.20F
PARIS*         CLOUDY    22  17  81 W7        30.22S WCI  13
$$

ILZ079-100>102-121500-
SOUTHWEST ILLINOIS

CITY           SKY/WX    TMP DP  RH WIND       PRES   REMARKS
ALTON          CLOUDY    25  21  86 W6        30.26R WCI  18
BELLEVILLE     PTSUNNY   26  24  92 N2        30.24R
CAHOKIA*       CLOUDY    27  21  78 N3        30.26R
SPARTA*        CLOUDY    26  22  86 CALM      30.25R
$$

ILZ064>066-069>071-074>076-080>082-084>086-088>090-092>094-121500-
SOUTH-CENTRAL ILLINOIS

CITY           SKY/WX    TMP DP  RH WIND       PRES   REMARKS
CARBONDALE     CLOUDY    27  22  81 CALM      30.24R
CAIRO*         CLOUDY    28  27  95 N5        30.23S WCI  23
EFFINGHAM*     CLOUDY    24  21  89 W3        30.25R
MT. VERNON     CLOUDY    25  18  74 CALM      30.25R
CENTRALIA*     CLOUDY    25  22  89 CALM      30.24R
SALEM*         CLOUDY    25  22  86 CALM      30.23S
METROPOLIS*    CLOUDY    28  26  95 NE3       30.23F
$$

ILZ067-068-072-073-078-083-087-091-121500-
SOUTHEAST ILLINOIS

CITY           SKY/WX    TMP DP  RH WIND       PRES   REMARKS
LAWRENCEVILLE  CLOUDY    22  18  85 CALM      30.24S
FLORA*         CLOUDY    25  22  89 CALM      30.25R
FAIRFIELD*     MIX PCPN  24  22  90 CALM      30.24R
HARRISBURG*    CLOUDY    26  24  93 CALM      30.25R
ROBINSON*      CLOUDY    22  18  85 CALM      30.24S
CARMI*         CLOUDY    25  24  95 CALM      30.24R FOG
$$

ABBREVIATIONS USED IN REMARKS
   TC - TEMPERATURE IN CELSIUS
  WCI - WIND CHILL INDEX
   HX - HEAT INDEX
  VSB - VISIBILITY
$$




USA.gov is the U.S. government's official web portal to all federal, state and local government web resources and services.